Startseite
Über Mich
AHP4
Galerie
Sehschlangen
Tourenbuch
Bookmarks
Elektronik
Bewertung
Geschichten
[Tagesmessung] [Jahreswerte] [Information]

Messwerte vom 26.04.2022

Die letzten Messwerte von 23:58:48 Uhr:
KategorieMesswert
Temperatur [°C]10
Luftdruck [mBar]1004
Sonneneinstrahlung0
Wind [km/h]0 aus
Niederschlag [l/m²]0
rel.Luftfeucht.86.5%
CO2 [ppm]462

Diagramme
Messwerte vom 26.04.2022
Tagesaggregation
KategorieMinimumMaximumSchnittSumme
Temperatur [°C]31910.7667
Luftdruck [mBar]99810041000.3583
Sonneneinstrahlung247118.8104
Wind [km/h]11
rF [%]4096.676.46
Niederschlag [l/m²]0
CO2 [ppm]423544474.2
Einordnung alsVegetationstag

Messungen an benachbarten Tagen: Zur Jahresaggregation 2022
Tabelle aller Messwerte
UhrzeitTemperatur [°C]Luftdruck [mBar]SonneWind [km/h]RichtungRegen [l/m²]rF [%]CO2 [ppm]
00:01:45 8 998 0 0 W 0 90.3 454
00:04:49 8 999 0 0 W 0 90 452
00:07:46 8 998 0 0 W 0 90 451
00:10:46 8 998 0 0 W 0 90.1 448
00:13:47 7 998 0 0 W 0 90.1 449
00:16:46 7 999 0 0 W 0 90.1 449
00:19:46 7 998 0 0 W 0 90.3 451
00:22:46 7 998 0 0 W 0 90.3 448
00:25:47 7 998 0 0 W 0 90.4 438
00:28:47 7 998 0 0 W 0 90.6 448
00:31:45 7 998 0 0 W 0 90.8 451
00:34:48 7 999 0 0 W 0 90.8 460
00:37:47 6 999 0 0 W 0 91 462
00:40:47 6 998 0 0 W 0 91.3 460
00:43:45 6 998 0 0 W 0 91.4 456
00:46:46 6 999 0 0 W 0 91.6 454
00:49:50 6 998 0 0 W 0 92.2 457
00:52:46 6 998 0 0 W 0 93.2 457
00:55:46 6 998 0 0 W 0 94 456
00:58:46 6 998 0 0 W 0 93.9 454
01:01:46 6 998 0 0 W 0 93.5 456
01:04:44 6 999 0 0 W 0 93.5 460
01:07:45 6 998 0 0 W 0 93.5 463
01:10:47 6 999 0 0 W 0 93.7 463
01:13:45 6 999 0 0 W 0 94.1 467
01:16:47 6 998 0 0 W 0 94.9 466
01:19:48 6 998 0 0 W 0 94.9 463
01:22:47 6 999 0 0 W 0 94.9 464
01:25:45 6 999 0 0 W 0 95 458
01:28:46 6 999 0 0 W 0 95.1 469
01:31:45 6 998 0 0 W 0 95.2 465
01:34:47 6 999 0 0 O 0 95.2 463
01:37:46 6 998 0 0 O 0 95.2 467
01:40:47 6 999 0 0 O 0 95.2 466
01:43:44 6 999 0 0 O 0 95.2 474
01:46:45 6 998 0 0 O 0 95.2 475
01:49:46 6 998 0 0 O 0 95.2 471
01:52:46 6 999 0 0 O 0 95.2 463
01:55:47 6 998 0 0 O 0 95.1 459
01:58:48 6 998 0 0 O 0 95.4 469
02:01:44 6 999 0 0 O 0 95.6 474
02:04:45 6 999 0 0 O 0 95.7 474
02:07:44 6 998 0 0 O 0 95.7 468
02:10:47 6 998 0 0 O 0 95.5 468
02:13:45 6 998 0 0 O 0 95.5 474
02:16:45 6 998 0 0 O 0 95.4 474
02:19:46 7 998 0 0 NW 0 95.7 469
02:22:47 7 999 0 0 NW 0 96.2 472
02:25:50 7 999 0 0 NW 0 96.3 473
02:28:50 7 999 0 0 NW 0 96.4 480
02:31:47 7 998 0 0 NW 0 96.4 474
02:34:48 6 998 0 0 NW 0 96.2 478
02:37:49 6 998 0 0 NW 0 96.1 472
02:40:46 6 998 0 0 NW 0 96 471
02:43:47 6 998 0 0 NW 0 96.1 471
02:46:48 6 999 0 0 NW 0 96.3 471
02:49:48 6 998 0 0 NW 0 96.6 474
02:52:48 6 998 0 0 NW 0 96.6 471
02:55:49 6 998 0 0 NW 0 96.6 477
02:58:47 6 998 0 0 NW 0 96.6 480
03:01:48 6 998 0 0 SO 0 96.6 483
03:04:47 6 998 0 1 SO 0 96.6 468
03:07:48 6 999 0 0 SO 0 96.6 475
03:10:47 6 999 0 0 SW 0 96.6 478
03:13:48 6 998 0 0 W 0 96.6 490
03:16:46 6 998 0 0 W 0 96.6 490
03:19:47 6 998 0 0 W 0 96.6 489
03:22:47 6 998 0 0 W 0 96.6 483
03:25:47 6 998 0 1 SO 0 96.6 492
03:28:48 6 998 0 0 SO 0 96.6 490
03:31:46 6 998 0 0 SO 0 96.6 487
03:34:47 6 998 0 0 SO 0 96.6 484
03:37:47 6 999 0 0 SO 0 96.6 483
03:40:48 6 998 0 0 SO 0 96.6 484
03:43:48 6 999 0 0 SO 0 96.6 486
03:46:47 6 998 0 0 SO 0 96.6 484
03:49:49 6 998 0 0 SO 0 96.6 484
03:52:46 6 998 0 0 SO 0 96.6 489
03:55:45 6 998 0 2 W 0 96.6 500
03:58:45 6 999 0 1 NO 0 96.6 500
04:01:47 6 998 0 0 S 0 96.6 501
04:04:48 6 998 0 0 S 0 96.6 501
04:07:46 5 998 0 0 S 0 96.6 507
04:10:47 5 998 0 0 S 0 96.6 504
04:13:45 5 999 0 0 S 0 96.6 501
04:16:46 5 998 0 0 S 0 96.6 498
04:19:46 5 998 0 0 S 0 96.6 498
04:22:46 5 998 0 0 S 0 96.6 498
04:25:47 5 999 0 0 S 0 96.6 500
04:28:46 5 998 0 0 S 0 96.6 501
04:31:45 5 999 0 0 W 0 96.6 504
04:34:46 5 998 0 0 SO 0 96.6 513
04:37:47 5 999 0 0 SO 0 96.6 507
04:40:48 5 998 0 0 SO 0 96.6 507
04:43:48 4 998 0 0 SO 0 96.6 504
04:46:47 4 999 0 0 SO 0 96.6 501
04:49:50 4 999 0 0 SO 0 96.6 496
04:52:47 4 999 0 0 SO 0 96.6 504
04:55:46 4 998 0 0 SO 0 96.6 507
04:58:47 4 998 0 0 SO 0 96.6 507
05:01:47 4 998 0 0 SO 0 96.6 502
05:04:47 4 998 0 0 SO 0 96.6 501
05:07:47 4 998 0 0 SO 0 96.6 502
05:10:48 5 999 0 0 SO 0 96.6 507
05:13:45 5 998 0 0 NO 0 96.6 515
05:16:47 4 999 0 0 NO 0 96.6 509
05:19:48 4 998 0 0 NO 0 96.6 501
05:22:50 4 998 0 0 NO 0 96.6 504
05:25:48 4 998 0 0 NO 0 96.6 504
05:28:48 4 998 0 0 NO 0 96.6 504
05:31:50 4 998 3 0 NO 0 96.6 507
05:34:48 4 998 6 0 NO 0 96.6 513
05:37:48 4 999 9 0 NO 0 96.6 519
05:40:48 4 999 13 0 NO 0 96.6 518
05:43:47 4 998 19 0 NO 0 96.6 512
05:46:51 4 998 26 0 NO 0 96.6 513
05:49:47 4 998 33 0 NO 0 96.6 513
05:52:50 4 999 42 0 NO 0 96.6 518
05:55:47 4 999 52 0 NO 0 96.6 521
05:58:48 3 998 62 0 NO 0 96.6 521
06:01:50 3 999 73 0 NO 0 96.6 527
06:04:48 3 999 82 0 NO 0 96.6 524
06:07:49 3 999 90 0 NO 0 96.6 527
06:10:50 3 999 97 0 NO 0 96.6 527
06:13:47 3 999 104 0 NO 0 96.6 524
06:16:47 3 998 114 0 NO 0 96.6 519
06:19:49 4 999 122 0 N 0 96.6 518
06:22:47 4 999 129 0 N 0 96.6 524
06:25:48 4 998 136 0 N 0 96.6 532
06:28:48 4 998 142 0 N 0 96.6 527
06:31:47 4 999 148 0 N 0 96.6 525
06:34:47 4 998 153 0 N 0 96.6 519
06:37:46 5 999 157 0 N 0 96.6 522
06:40:48 5 999 162 0 N 0 96.6 527
06:43:47 5 999 164 0 N 0 96.6 530
06:46:47 5 999 168 0 S 0 96.6 521
06:49:48 5 999 171 0 S 0 96.6 524
06:52:45 5 999 175 0 S 0 96.6 527
06:55:47 5 999 178 0 S 0 96.6 536
06:58:48 6 999 179 0 O 0 96.6 536
07:01:48 6 999 182 0 NO 0 96.6 529
07:04:46 6 999 186 0 S 0 96.6 531
07:07:50 7 999 187 0 SO 0 96.6 533
07:10:47 8 998 188 0 N 0 96.6 536
07:13:46 9 999 190 0 N 0 96.4 531
07:16:46 9 999 190 0 N 0 95.3 533
07:19:48 10 999 188 0 N 0 93.2 536
07:22:47 10 999 189 0 O 0 91.7 535
07:25:46 10 999 189 0 O 0 91.1 536
07:28:31 9 999 188 1 O 0 84.1 536
07:31:49 10 999 189 0 O 0 89.2 533
07:34:46 10 999 189 0 O 0 88.9 535
07:37:48 8 999 190 0 NO 0 90.7 536
07:40:47 8 999 189 0 NO 0 92.4 532
07:43:47 8 999 190 0 NO 0 93.1 527
07:46:48 7 999 190 0 NO 0 94.3 530
07:49:47 7 1000 190 0 N 0 94.9 533
07:52:48 7 999 190 0 N 0 95.9 544
07:55:47 7 999 190 0 NO 0 96 539
07:58:48 7 999 191 0 NO 0 96.5 542
08:01:48 8 999 191 0 NO 0 96.6 536
08:04:47 8 999 191 0 NO 0 96.6 536
08:07:48 8 999 192 0 NO 0 96.6 536
08:10:47 8 1000 192 0 NO 0 96.6 536
08:13:49 8 999 193 0 NO 0 96.6 536
08:16:49 8 999 193 0 NO 0 96.6 539
08:19:48 8 999 193 0 NO 0 96.6 536
08:22:49 8 999 193 0 NO 0 96.6 530
08:25:50 8 1000 194 0 SO 0 96.6 530
08:28:50 8 999 194 0 NO 0 96.5 530
08:31:49 9 999 194 0 NO 0 96.4 534
08:34:47 9 999 194 0 S 0 96.4 536
08:37:46 9 999 194 0 O 0 96.4 533
08:40:47 9 999 194 2 O 0 96.5 530
08:43:48 9 1000 195 1 O 0 96.4 530
08:46:48 9 999 195 0 SW 0 96.2 527
08:49:49 9 999 195 4 SO 0 95.8 530
08:52:49 9 999 196 3 SW 0 95.8 527
08:55:51 9 1000 195 7 O 0 95.4 528
08:58:48 10 1000 195 0 S 0 95.4 518
09:01:47 10 999 196 1 N 0 95.2 525
09:04:50 10 999 196 0 N 0 95.2 527
09:07:49 10 999 196 3 SO 0 95.2 536
09:10:49 10 1000 196 2 S 0 95.2 536
09:13:48 10 1000 196 3 SW 0 94.5 530
09:16:47 10 1000 197 3 S 0 94 527
09:19:47 10 999 197 2 O 0 93.6 527
09:22:46 10 999 197 0 S 0 93.3 524
09:25:48 11 999 197 2 O 0 92.2 524
09:28:47 11 1000 198 4 S 0 91.5 527
09:31:48 11 999 198 1 S 0 90.8 530
09:34:49 11 999 199 1 SO 0 90.3 524
09:37:49 11 1000 199 5 W 0 88.6 526
09:40:48 11 999 200 0 SO 0 88.4 521
09:43:48 12 999 201 3 NO 0 88.2 524
09:46:47 12 999 202 4 S 0 87.5 525
09:49:50 12 999 202 1 SW 0 85.8 524
09:52:48 12 999 203 3 NW 0 80.9 524
09:55:48 12 1000 204 0 O 0 80.8 521
09:58:49 12 1000 204 2 O 0 81.4 518
10:01:50 12 999 205 2 SO 0 80.6 515
10:04:49 12 999 205 6 S 0 79.5 515
10:07:49 12 1000 205 0 S 0 77.8 518
10:10:48 12 1000 205 0 SW 0 77.4 521
10:13:47 12 1000 205 3 S 0 77.8 522
10:16:46 13 1000 206 6 S 0 77.7 524
10:19:49 13 1000 206 2 S 0 75.9 518
10:22:49 13 1000 206 3 N 0 69.6 516
10:25:49 13 1000 206 2 S 0 69.8 513
10:28:48 13 1000 206 4 SO 0 71.9 515
10:31:50 13 1000 206 1 SO 0 71.8 509
10:34:48 13 1000 207 1 S 0 71.3 512
10:37:47 14 1000 207 3 O 0 70.9 513
10:40:47 14 1000 207 6 W 0 70.9 515
10:43:47 14 1001 207 4 S 0 69 512
10:46:48 14 1000 207 6 SO 0 68.4 510
10:49:49 14 1000 207 2 SO 0 65 504
10:52:48 14 1001 208 3 SW 0 64.2 506
10:55:47 14 1001 208 3 SO 0 63.4 501
10:58:49 14 1001 209 4 SO 0 65.7 500
11:01:49 14 1000 209 2 SO 0 67.3 501
11:04:49 14 1000 211 2 N 0 66.8 501
11:07:49 14 1001 212 0 NO 0 65.1 502
11:10:49 14 1000 212 2 SO 0 65.7 501
11:13:47 15 1000 212 0 S 0 67 501
11:16:30 13 1000 212 1 W 0 58.1 501
11:19:51 15 1000 212 0 NW 0 60.6 495
11:22:46 15 1000 213 4 O 0 60.6 492
11:25:49 15 1000 215 6 SO 0 61.5 501
11:28:46 16 1001 217 2 S 0 61.6 506
11:31:47 16 1000 219 4 NO 0 57.7 504
11:34:48 16 1000 219 3 SO 0 54.8 498
11:37:47 16 1000 222 4 SO 0 55.4 493
11:40:31 15 1000 221 2 NO 0 47.8 489
11:43:50 16 1000 224 2 NO 0 53.4 487
11:46:49 16 1001 224 2 S 0 54.9 492
11:49:47 16 1000 227 3 O 0 54.5 495
11:52:31 15 1001 227 7 S 0 40 495
11:55:51 17 1001 229 3 SW 0 54.6 492
11:58:47 17 1001 229 3 O 0 52.3 492
12:01:50 17 1001 228 8 SO 0 52.9 483
12:04:32 15 1001 227 4 NO 0 40 483
12:07:49 18 1000 227 6 NW 0 49.4 483
12:10:48 17 1001 225 4 NO 0 49.6 480
12:13:47 17 1000 223 4 S 0 51.9 467
12:16:48 17 1000 223 6 SO 0 52.7 481
12:19:49 17 1001 222 4 SW 0 51.2 490
12:22:48 17 1001 221 3 NW 0 50.5 487
12:25:32 16 1000 220 2 O 0 40 483
12:28:48 17 1001 220 3 S 0 53.2 468
12:31:49 17 1001 218 5 O 0 48 473
12:34:49 17 1000 218 3 SO 0 51.8 472
12:37:49 17 1000 218 5 SO 0 52.7 472
12:40:47 17 1001 219 8 S 0 53.1 471
12:43:50 17 1001 220 2 SO 0 52.3 479
12:46:47 17 1001 220 2 S 0 52.6 483
12:49:45 17 1001 220 5 S 0 53.4 477
12:52:48 17 1001 221 4 S 0 53.3 468
12:55:47 17 1000 219 0 N 0 49.2 474
12:58:47 17 1002 218 2 N 0 51.6 477
13:01:50 17 1000 218 4 S 0 52.5 471
13:04:47 17 1001 217 0 W 0 52.7 460
13:07:49 17 1000 214 6 SO 0 53.2 465
13:10:48 16 1001 211 2 NO 0 53.5 469
13:13:48 16 1002 209 4 N 0 53.1 471
13:16:46 15 1001 206 5 N 0 53 466
13:19:48 15 1000 203 0 NO 0 54.2 469
13:22:46 15 1000 202 0 N 0 55.3 472
13:25:47 15 1001 203 2 N 0 56.5 466
13:28:46 14 1001 204 3 NO 0 56.4 468
13:31:48 14 1001 203 1 O 0 55.6 466
13:34:47 14 1001 198 2 N 0 56.7 465
13:37:47 14 1001 191 2 O 0 57.4 460
13:40:50 15 1002 188 0 SO 0 58.1 465
13:43:46 14 1001 187 3 N 0 58.7 463
13:46:46 14 1002 189 1 NO 0 58.6 463
13:49:47 14 1002 193 2 N 0 59.3 466
13:52:47 14 1002 198 1 N 0 63.8 469
13:55:50 13 1002 202 2 NW 0 66.6 463
13:58:51 13 1002 204 4 NW 0 67.3 457
14:01:49 13 1001 204 6 NW 0 67.4 460
14:04:47 13 1001 206 3 N 0 66.9 466
14:07:48 13 1002 210 3 N 0 65.8 466
14:10:47 13 1002 212 7 W 0 64.6 463
14:13:47 13 1002 214 3 N 0 64.7 463
14:16:48 14 1001 216 5 NW 0 65.3 460
14:19:46 14 1002 218 3 N 0 64.6 456
14:22:47 14 1001 220 5 NO 0 64.5 453
14:25:46 14 1002 220 4 N 0 63.3 463
14:28:47 14 1001 219 4 W 0 62.8 466
14:31:49 14 1002 218 3 N 0 63.2 468
14:34:48 14 1002 219 0 O 0 62.8 466
14:37:49 14 1002 220 2 SO 0 63.8 472
14:40:49 14 1002 222 3 NW 0 63 454
14:43:48 14 1001 223 0 N 0 63.3 448
14:46:46 15 1002 223 1 O 0 63.7 445
14:49:49 15 1001 222 3 N 0 64.5 446
14:52:48 15 1001 223 2 NW 0 63.9 451
14:55:49 15 1002 223 3 NW 0 62.1 448
14:58:49 15 1002 222 5 N 0 62.3 448
15:01:47 15 1002 222 0 O 0 62.3 451
15:04:46 15 1002 223 3 N 0 60.6 450
15:07:47 15 1001 223 2 O 0 58.9 448
15:10:46 16 1001 224 0 O 0 58.3 445
15:13:48 16 1002 224 3 W 0 58.2 448
15:16:46 16 1001 225 2 N 0 57.3 448
15:19:47 16 1001 227 3 N 0 58.3 446
15:22:48 16 1001 228 1 NO 0 57.6 445
15:25:47 16 1002 229 5 N 0 57.9 442
15:28:49 16 1001 231 0 NO 0 58.1 447
15:31:49 16 1001 232 1 NW 0 56.8 451
15:34:48 16 1001 233 0 NW 0 55.9 447
15:37:46 16 1001 235 4 NO 0 55.1 442
15:40:47 16 1001 239 1 NO 0 54.5 442
15:43:49 16 1001 243 3 NO 0 53.4 439
15:46:50 16 1001 242 2 NW 0 52.5 436
15:49:48 16 1000 237 4 SO 0 51.5 436
15:52:48 16 1001 242 0 NO 0 51.8 439
15:55:49 17 1000 246 0 NW 0 53 443
15:58:48 17 1001 247 2 S 0 52.2 451
16:01:51 18 1001 245 11 SW 0 49.9 449
16:04:48 18 1001 246 4 O 0 49.1 442
16:07:47 19 1001 246 3 W 0 48.7 442
16:10:51 19 1001 244 5 NW 0 43.9 440
16:13:47 19 1001 240 2 SW 0 44.2 439
16:16:47 18 1001 244 4 SO 0 46 434
16:19:48 19 1001 240 8 S 0 47.9 433
16:22:32 18 1001 239 6 N 0 40 437
16:25:48 18 1001 241 2 S 0 46.6 445
16:28:47 18 1001 233 4 0 45.5 439
16:31:49 17 1002 232 5 NO 0 45.1 435
16:34:50 17 1001 230 3 SO 0 48.5 432
16:37:48 17 1001 228 1 O 0 48.3 437
16:40:49 17 1001 228 7 NO 0 47.6 434
16:43:48 17 1001 229 8 NO 0 48.4 434
16:46:47 17 1001 229 1 NO 0 49.9 433
16:49:48 17 1001 228 1 O 0 50.7 439
16:52:48 16 1002 227 5 O 0 50.4 439
16:55:49 16 1002 227 0 NW 0 50.8 439
16:58:48 16 1001 229 4 N 0 49.3 431
17:01:48 16 1001 231 2 NO 0 49.2 434
17:04:49 16 1001 232 2 O 0 48.8 431
17:07:50 16 1002 228 1 SO 0 48.2 440
17:10:48 16 1001 224 3 S 0 49.3 433
17:13:47 16 1001 218 1 N 0 50.7 429
17:16:45 16 1002 211 1 N 0 51.1 423
17:19:49 16 1002 210 0 N 0 50.9 436
17:22:48 16 1002 210 3 NW 0 50.4 433
17:25:48 16 1001 211 0 N 0 49.8 433
17:28:47 16 1001 212 5 W 0 50 434
17:31:50 16 1001 211 0 NW 0 49.7 433
17:34:47 16 1001 211 0 SO 0 50.6 427
17:37:48 16 1002 210 5 NW 0 49.6 427
17:40:48 16 1002 211 2 SW 0 50.5 430
17:43:48 16 1001 212 2 NW 0 51.6 436
17:46:47 16 1001 214 2 W 0 52 439
17:49:49 16 1002 216 4 W 0 52.6 442
17:52:48 16 1002 216 6 W 0 52.6 444
17:55:46 16 1001 215 2 W 0 53.2 436
17:58:48 16 1002 214 2 W 0 53.6 436
18:01:49 16 1002 215 3 W 0 54 433
18:04:46 16 1001 216 4 W 0 54 433
18:07:49 16 1002 216 3 W 0 54.2 427
18:10:50 16 1001 215 2 NW 0 55.1 433
18:13:48 16 1002 213 3 NW 0 54.5 433
18:16:47 15 1002 213 0 N 0 53.2 434
18:19:48 15 1002 212 4 NO 0 53.6 436
18:22:47 15 1002 211 8 N 0 53.6 434
18:25:48 15 1002 214 3 N 0 55.8 430
18:28:47 15 1002 217 7 O 0 56.9 431
18:31:47 15 1002 219 6 N 0 58 436
18:34:48 14 1002 218 3 NO 0 59 430
18:37:49 14 1002 213 0 NO 0 59.7 433
18:40:48 14 1001 207 2 NO 0 60.3 431
18:43:48 14 1002 202 3 0 61 433
18:46:49 14 1002 199 2 NO 0 61.9 433
18:49:49 14 1002 199 4 NW 0 62.6 439
18:52:48 14 1002 195 5 N 0 63.6 434
18:55:48 14 1002 190 4 NW 0 63.8 434
18:58:50 13 1002 182 2 NO 0 63.9 428
19:01:48 13 1002 174 1 NO 0 64.4 428
19:04:48 13 1002 167 3 NW 0 64.7 430
19:07:47 13 1002 161 4 NO 0 65.1 436
19:10:47 13 1002 155 3 NO 0 65.1 442
19:13:50 13 1002 150 0 NO 0 66.1 443
19:16:46 13 1002 146 3 N 0 66.5 442
19:19:47 13 1002 142 0 W 0 66.7 436
19:22:46 13 1002 137 1 O 0 66.6 437
19:25:50 13 1002 132 0 SO 0 67.1 439
19:28:50 13 1002 127 0 NO 0 67.4 442
19:31:50 13 1002 122 2 NO 0 67.6 442
19:34:49 12 1002 116 0 O 0 68.1 440
19:37:47 12 1002 110 0 N 0 68.3 434
19:40:49 12 1002 104 1 NO 0 68.9 428
19:43:49 12 1002 100 0 NO 0 69.2 431
19:46:48 12 1002 96 1 O 0 69.3 431
19:49:46 12 1002 91 0 N 0 69.3 441
19:52:45 12 1002 87 0 N 0 69.3 447
19:55:46 12 1002 84 1 N 0 69 439
19:58:50 12 1002 80 2 NW 0 68.7 437
20:01:47 12 1002 76 1 N 0 68.1 431
20:04:49 12 1002 72 0 NW 0 67.5 431
20:07:49 12 1002 69 0 N 0 66.9 436
20:10:48 12 1002 66 0 N 0 66.5 442
20:13:48 12 1002 61 0 NO 0 66.3 436
20:16:47 12 1002 55 0 N 0 66.1 446
20:19:46 12 1002 51 0 N 0 65.9 443
20:22:46 12 1002 48 0 N 0 66.1 443
20:25:47 12 1002 44 0 NW 0 66.7 442
20:28:47 12 1002 41 0 NW 0 67.1 436
20:31:48 12 1002 36 0 NW 0 67.2 432
20:34:49 11 1002 31 0 NW 0 67.2 436
20:37:50 11 1002 27 0 NW 0 67.4 442
20:40:46 11 1002 23 1 S 0 67.6 439
20:43:49 11 1002 19 0 SW 0 67.9 439
20:46:47 11 1002 14 0 SW 0 68.6 442
20:49:48 11 1002 10 1 SO 0 69.3 436
20:52:46 11 1002 7 0 SO 0 69.8 439
20:55:48 11 1002 5 0 SO 0 69.9 430
20:58:45 11 1002 3 0 SO 0 70.4 434
21:01:48 11 1002 0 0 SO 0 72.1 434
21:04:48 11 1002 0 0 SO 0 72.4 430
21:07:48 11 1002 0 0 SO 0 72.5 439
21:10:48 11 1002 0 0 SO 0 72.5 445
21:13:46 11 1002 0 0 SO 0 73.6 439
21:16:47 11 1002 0 0 SO 0 73.7 436
21:19:47 10 1002 0 0 SO 0 73.5 442
21:22:47 10 1003 0 0 SO 0 73.9 442
21:25:46 10 1002 0 0 SO 0 74.4 442
21:28:48 10 1002 0 0 SO 0 74.5 444
21:31:48 10 1003 0 0 SO 0 74.4 444
21:34:46 10 1002 0 0 SO 0 74.5 445
21:37:46 10 1003 0 0 SO 0 74.5 445
21:40:47 10 1003 0 0 SO 0 74.7 442
21:43:47 10 1003 0 0 SO 0 75.2 443
21:46:46 10 1003 0 0 SO 0 75.7 437
21:49:47 10 1002 0 0 SO 0 75.8 433
21:52:46 10 1002 0 0 SO 0 76 436
21:55:45 10 1002 0 0 SO 0 76.4 443
21:58:46 10 1003 0 0 SO 0 77.1 450
22:01:47 10 1003 0 0 SO 0 78.1 448
22:04:45 10 1003 0 0 SO 0 79 445
22:07:48 10 1002 0 0 SO 0 79.8 448
22:10:48 10 1003 0 0 SO 0 80.2 446
22:13:47 10 1003 0 1 S 0 80.3 447
22:16:47 10 1003 0 0 S 0 80.1 442
22:19:46 10 1003 0 0 S 0 79.7 442
22:22:45 10 1003 0 0 S 0 79.6 442
22:25:46 10 1003 0 0 S 0 79.3 445
22:28:50 10 1003 0 0 S 0 78.9 451
22:31:47 10 1003 0 0 S 0 79.1 454
22:34:46 10 1003 0 0 S 0 79.7 454
22:37:45 10 1003 0 0 S 0 79.9 448
22:40:47 10 1003 0 0 S 0 80.4 445
22:43:48 10 1003 0 0 S 0 80.5 442
22:46:45 10 1003 0 0 S 0 80.4 439
22:49:46 10 1003 0 0 S 0 80.3 439
22:52:48 10 1004 0 0 S 0 80.3 439
22:55:47 10 1003 0 0 S 0 80.5 442
22:58:47 10 1003 0 0 N 0 81.2 444
23:01:48 10 1003 0 0 SO 0 81.3 448
23:04:46 10 1004 0 0 SO 0 81.1 445
23:07:49 10 1003 0 0 SO 0 81.9 444
23:10:48 10 1003 0 0 NW 0 82 445
23:13:47 10 1004 0 0 NW 0 81.9 454
23:16:48 10 1003 0 0 NW 0 81.8 448
23:19:49 10 1004 0 0 NW 0 81.6 442
23:22:46 10 1003 0 0 NW 0 81.6 443
23:25:47 10 1004 0 0 NW 0 82.1 451
23:28:46 10 1003 0 0 NW 0 83.4 454
23:31:47 10 1004 0 0 NO 0 83.1 460
23:34:45 10 1004 0 0 NO 0 83.7 457
23:37:49 10 1003 0 0 NO 0 84 454
23:40:45 10 1004 0 0 O 0 84.3 451
23:43:46 10 1003 0 0 O 0 84.7 448
23:46:48 10 1003 0 0 O 0 85.6 454
23:49:45 10 1004 0 0 N 0 85.3 460
23:52:45 10 1003 0 0 N 0 85.1 463
23:55:47 10 1004 0 0 O 0 85.9 468
23:58:48 10 1004 0 0 0 86.5 462

Letzte Änderung : 22-Jul-2022
Copyright Jens Köhler, Wolfsburg, Obere Dorfstraße 10d